User: anonymous   Login
Location: Summit Observatory
(39.5293°N, 75.7290°W)
Time: 12:59:31
(UTC-04:00)
Language:

YUBILEINY - Orbit

View from above orbital plane
View from above orbital plane
View from above satellite
View from above satellite

Ground track
Ground track

The orbit data is extracted from the following two-line orbital elements,

1 32953U 08025A   19291.41663603  .00000020  00000-0  75656-4 0  9993
2 32953  82.5006  69.0536 0018966 222.1467 137.8158 12.43091855517439
Epoch (UTC): 18 October 2019 09:59:57
Eccentricity: 0.0018966
inclination: 82.5006°
perigee height: 1478 km
apogee height: 1508 km
right ascension of ascending node: 69.0536°
argument of perigee: 222.1467°
revolutions per day: 12.43091855
mean anomaly at epoch: 137.8158°
orbit number at epoch: 51743

The dashed part of the orbit path shows where the satellite is in the earth's shadow,  

DLR